LA5HL Weather Reports


time (UTC)temp
F
wind
direction
speed
knots
gust
knots
rain 1hr
in
rain 24hr
in
rain mn
in
humidity
%
barometer
mb
20260506121504 38 26 0.0 0.0 0.00 0.00 0.00 74 1008.3
20260506121004 38 26 0.0 0.0 0.00 0.00 0.00 74 1008.2
20260506120505 38 26 0.0 0.0 0.00 0.00 0.00 74 1008.1
20260506120005 38 26 0.0 0.0 0.00 0.00 0.00 73 1008.1
20260506115504 38 26 0.0 0.0 0.00 0.00 0.00 73 1008.1
20260506115004 38 26 0.0 0.0 0.00 0.00 0.00 72 1008.0
20260506114504 38 26 0.0 0.0 0.00 0.00 0.00 71 1007.9
20260506114004 38 26 0.0 0.0 0.00 0.00 0.00 71 1007.9
20260506113504 39 26 0.0 0.0 0.00 0.00 0.00 71 1007.9
20260506113004 39 26 0.0 0.0 0.00 0.00 0.00 70 1007.8
20260506112504 40 26 0.0 0.0 0.00 0.00 0.00 70 1007.7
20260506112004 42 26 0.0 0.0 0.00 0.00 0.00 68 1007.6
20260506111504 43 26 0.0 0.0 0.00 0.00 0.00 66 1007.6
20260506111004 43 26 0.0 0.0 0.00 0.00 0.00 67 1007.7
20260506110504 43 26 0.0 0.0 0.00 0.00 0.00 68 1007.5
20260506110004 43 26 0.0 0.0 0.00 0.00 0.00 69 1007.5
20260506105504 42 26 0.0 0.0 0.00 0.00 0.00 69 1007.5
20260506105004 41 26 0.0 0.0 0.00 0.00 0.00 70 1007.4
20260506104504 41 26 0.0 0.0 0.00 0.00 0.00 70 1007.4
20260506104005 41 26 0.0 0.0 0.00 0.00 0.00 70 1007.4
20260506103504 40 26 0.0 0.0 0.00 0.00 0.00 71 1007.3
20260506103004 40 26 0.0 0.0 0.00 0.00 0.00 71 1007.3
20260506102504 39 26 0.0 0.0 0.00 0.00 0.00 70 1007.3
20260506102004 39 26 0.0 0.0 0.00 0.00 0.00 70 1007.3
20260506080504 38 26 0.0 0.0 0.00 0.00 0.00 70 1006.3
20260506073504 38 26 0.0 0.0 0.00 0.00 0.00 71 1006.1
20260506073004 38 26 0.0 0.0 0.00 0.00 0.00 72 1006.0
20260506072504 37 26 0.0 0.0 0.00 0.00 0.00 72 1006.0
20260506072004 37 26 0.0 0.0 0.00 0.00 0.00 72 1005.9
20260506071504 37 26 0.0 0.0 0.00 0.00 0.00 72 1005.9
20260506071004 37 26 0.0 0.0 0.00 0.00 0.00 72 1005.9
20260506070504 37 26 0.0 0.0 0.00 0.00 0.00 72 1006.0
20260506062505 38 26 0.0 0.0 0.00 0.00 0.00 71 1005.6
20260506062004 38 26 0.0 0.0 0.00 0.00 0.00 72 1005.6
20260506061504 38 26 0.0 0.0 0.00 0.00 0.00 72 1005.5
20260506061004 38 26 0.0 0.0 0.00 0.00 0.00 72 1005.5
20260506060504 38 26 0.0 0.0 0.00 0.00 0.00 73 1005.5
20260506051004 35 26 0.0 0.0 0.00 0.00 0.00 76 1005.2
20260506050504 35 26 0.0 0.0 0.00 0.00 0.00 76 1005.3
20260506045004 34 26 0.0 0.0 0.00 0.00 0.00 77 1005.1
20260506044504 34 26 0.0 0.0 0.00 0.00 0.00 77 1005.2
20260506044004 34 26 0.0 0.0 0.00 0.00 0.00 77 1005.1
20260506043504 34 26 0.0 0.0 0.00 0.00 0.00 77 1005.2
20260506043004 34 26 0.0 0.0 0.00 0.00 0.00 77 1005.1
20260506042504 33 26 0.0 0.0 0.00 0.00 0.00 77 1005.1
20260506042004 33 26 0.0 0.0 0.00 0.00 0.00 77 1005.1
20260506041504 33 26 0.0 0.0 0.00 0.00 0.00 77 1005.0
20260506041004 33 26 0.0 0.0 0.00 0.00 0.00 77 1005.0
20260506040504 33 26 0.0 0.0 0.00 0.00 0.00 77 1005.0
20260506040004 33 26 0.0 0.0 0.00 0.00 0.00 77 1005.0
20260506035504 32 26 0.0 0.0 0.00 0.00 0.00 77 1005.0
20260506035004 32 26 0.0 0.0 0.00 0.00 0.00 77 1004.9
20260506034504 32 26 0.0 0.0 0.00 0.00 0.00 78 1004.8
20260506034004 32 26 0.0 0.0 0.00 0.00 0.00 78 1004.7
20260506033504 32 26 0.0 0.0 0.00 0.00 0.00 78 1004.7
20260506033005 32 26 0.0 0.0 0.00 0.00 0.00 78 1004.8
20260506032504 32 26 0.0 0.0 0.00 0.00 0.00 78 1004.7
20260506032004 32 26 0.0 0.0 0.00 0.00 0.00 78 1004.7
20260506031504 32 26 0.0 0.0 0.00 0.00 0.00 78 1004.6
20260506031004 32 26 0.0 0.0 0.00 0.00 0.00 78 1004.5
20260506030504 32 26 0.0 0.0 0.00 0.00 0.00 78 1004.5
20260505230004 33 26 0.0 0.0 0.00 0.00 0.00 72 1003.4
20260505225505 33 26 0.0 0.0 0.00 0.00 0.00 72 1003.2
20260505225004 34 26 0.0 0.0 0.00 0.00 0.00 72 1003.3
20260505224504 34 26 0.0 0.0 0.00 0.00 0.00 72 1003.3
20260505224004 34 26 0.0 0.0 0.00 0.00 0.00 71 1003.2
20260505223504 34 26 0.0 0.0 0.00 0.00 0.00 71 1003.2
20260505223004 34 26 0.0 0.0 0.00 0.00 0.00 71 1003.3
20260505222504 34 26 0.0 0.0 0.00 0.00 0.00 71 1003.2
20260505222004 34 26 0.0 0.0 0.00 0.00 0.00 71 1003.1
20260505221504 34 26 0.0 0.0 0.00 0.00 0.00 71 1003.2
20260505221004 34 26 0.0 0.0 0.00 0.00 0.00 71 1003.1
20260505220504 34 26 0.0 0.0 0.00 0.00 0.00 71 1003.1
20260505220004 34 26 0.0 0.0 0.00 0.00 0.00 71 1003.1
20260505210004 35 26 0.0 0.0 0.00 0.00 0.00 70 1003.0
20260505195504 36 26 0.0 0.0 0.00 0.00 0.00 69 1002.6
20260505195004 36 26 0.0 0.0 0.00 0.00 0.00 69 1002.7
20260505194504 36 26 0.0 0.0 0.00 0.00 0.00 68 1002.7
20260505194004 36 26 0.0 0.0 0.00 0.00 0.00 68 1002.6
20260505193504 36 26 0.0 0.0 0.00 0.00 0.00 68 1002.7
20260505193004 36 26 0.0 0.0 0.00 0.00 0.00 68 1002.6
20260505192504 36 26 0.0 0.0 0.00 0.00 0.00 67 1002.6
20260505192004 36 26 0.0 0.0 0.00 0.00 0.00 67 1002.6
20260505191504 37 26 0.0 0.0 0.00 0.00 0.00 68 1002.4
20260505191004 37 26 0.0 0.0 0.00 0.00 0.00 68 1002.4
20260505190504 37 26 0.0 0.0 0.00 0.00 0.00 67 1002.4
20260505190004 37 26 0.0 0.0 0.00 0.00 0.00 67 1002.4
20260505185505 37 26 0.0 0.0 0.00 0.00 0.00 67 1002.3
20260505185004 37 26 0.0 0.0 0.00 0.00 0.00 67 1002.3
20260505184510 37 26 0.0 0.0 0.00 0.00 0.00 67 1002.4
20260505184004 37 26 0.0 0.0 0.00 0.00 0.00 67 1002.4
20260505183504 37 26 0.0 0.0 0.00 0.00 0.00 66 1002.3
20260505183004 37 26 0.0 0.0 0.00 0.00 0.00 66 1002.4
20260505182504 38 26 0.0 0.0 0.00 0.00 0.00 66 1002.3
20260505182004 38 26 0.0 0.0 0.00 0.00 0.00 66 1002.3
20260505181503 38 26 0.0 0.0 0.00 0.00 0.00 66 1002.2
20260505181004 38 26 0.0 0.0 0.00 0.00 0.00 66 1002.2
20260505180504 38 26 0.0 0.0 0.00 0.00 0.00 66 1002.0
20260505180004 38 26 0.0 0.0 0.00 0.00 0.00 66 1002.0
20260505175504 38 26 0.0 0.0 0.00 0.00 0.00 66 1002.1
20260505175005 38 26 0.0 0.0 0.00 0.00 0.00 65 1002.0
20260505174507 38 26 0.0 0.0 0.00 0.00 0.00 65 1001.9
20260505174004 39 26 0.0 0.0 0.00 0.00 0.00 65 1002.0
20260505173504 39 26 0.0 0.0 0.00 0.00 0.00 64 1001.9
20260505173004 39 26 0.0 0.0 0.00 0.00 0.00 64 1002.0
20260505172504 39 26 0.0 0.0 0.00 0.00 0.00 64 1001.9
20260505172004 39 26 0.0 0.0 0.00 0.00 0.00 64 1002.0
20260505171504 40 26 0.0 0.0 0.00 0.00 0.00 65 1001.9
20260505171004 40 26 0.0 0.0 0.00 0.00 0.00 65 1001.8
20260505170504 40 26 0.0 0.0 0.00 0.00 0.00 65 1001.7
20260505170004 40 26 0.0 0.0 0.00 0.00 0.00 65 1001.7
20260505165504 40 26 0.0 0.0 0.00 0.00 0.00 65 1001.7
20260505165004 40 26 0.0 0.0 0.00 0.00 0.00 65 1001.7
20260505164504 40 26 0.0 0.0 0.00 0.00 0.00 65 1001.7
20260505164007 40 26 0.0 0.0 0.00 0.00 0.00 65 1001.6
20260505153004 41 26 0.0 0.0 0.00 0.00 0.00 64 1001.3
20260505152504 41 26 0.0 0.0 0.00 0.00 0.00 64 1001.3
20260505152004 42 26 0.0 0.0 0.00 0.00 0.00 64 1001.3
20260505151504 42 26 0.0 0.0 0.00 0.00 0.00 64 1001.2
20260505151004 42 26 0.0 0.0 0.00 0.00 0.00 64 1001.2
20260505150504 42 26 0.0 0.0 0.00 0.00 0.00 64 1001.2